This demonstration page uses our WeatherBlox Daily Observations layout. Learn more.

41.55636, -103.73856

Hourly Observations for March 8, 2019

Temp ( °F °C ) Dew Point ( °F °C ) Humidity (%) Winds ( mph kmh ) Pressure ( in mb ) Visibility ( mi km ) Precip ( " mm )
12:58 am 00:58 Mostly Clear with Mist and Fog 32 0.2 29 -1.8 87 87 SW 13 20 29.94 1014 6 9.65604 0 0
1:58 am 01:58 Clear with Mist and Fog 31 -0.5 28 -2.4 87 87 SW 15 24 29.95 1014 5 8.0467 0 0
2:58 am 02:58 Clear with Mist and Fog 31 -0.6 27 -2.7 86 86 SW 17 28 29.98 1015 6 9.65604 0 0
3:58 am 03:58 Clear with Mist and Fog 28 -2.1 25 -3.9 88 88 SW 18 30 29.95 1014 5 8.0467 0 0
4:58 am 04:58 Clear 35 1.4 25 -3.7 69 69 WSW 14 22 29.94 1014 10 16.0934 0 0
5:58 am 05:58 Clear 29 -1.9 23 -5.1 79 79 W 10 17 29.96 1015 10 16.0934 0 0
6:58 am 06:58 Clear 29 -1.9 21 -6.1 73 73 W 12 19 29.94 1014 10 16.0934 0 0
7:58 am 07:58 Clear 32 0 21 -6.3 63 63 WNW 7 11 29.91 1013 10 16.0934 0 0
8:58 am 08:58 Clear 35 1.6 20 -6.7 54 54 W 14 22 29.89 1012 10 16.0934 0 0
9:58 am 09:58 Clear 31 -0.4 18 -7.6 59 59 W 10 17 29.87 1012 10 16.0934 0 0
10:58 am 10:58 Mostly Cloudy 30 -1 18 -7.6 61 61 W 10 17 29.87 1012 10 16.0934 0 0
11:58 am 11:58 Mostly Cloudy 30 -1.1 18 -7.9 60 60 Calm 29.85 1011 10 16.0934 0 0
12:58 pm 12:58 Mostly Cloudy 31 -0.3 20 -6.8 62 62 SSW 8 13 29.86 1011 10 16.0934 0 0
1:58 pm 13:58 Mostly Cloudy 31 -0.6 21 -6.1 67 67 S 8 13 29.86 1011 10 16.0934 0 0
2:58 pm 14:58 Mostly Cloudy 34 1.1 24 -4.7 66 66 SSW 8 13 29.84 1010 10 16.0934 0 0
3:58 pm 15:58 Mostly Cloudy 37 3 26 -3.4 63 63 S 7 11 29.82 1010 10 16.0934 0 0
4:58 pm 16:58 Partly Cloudy 38 3.5 28 -2.2 67 67 SSE 13 20 29.75 1007 10 16.0934 0 0
5:58 pm 17:58 Partly Cloudy 39 4.1 28 -2 65 65 SSE 13 20 29.75 1007 10 16.0934 0 0
6:58 pm 18:58 Partly Cloudy 40 4.7 29 -1.8 63 63 SSE 13 20 29.69 1006 10 16.0934 0 0
7:58 pm 19:58 Mostly Sunny 39 4 29 -1.5 68 68 ESE 10 17 29.64 1004 10 16.0934 0 0
8:58 pm 20:58 Mostly Sunny 38 3.3 30 -1.1 73 73 ESE 8 13 29.6 1002 10 16.0934 0 0
9:58 pm 21:58 Sunny 38 3.2 32 -0.1 79 79 SE 12 19 29.58 1002 10 16.0934 0 0
10:58 pm 22:58 Sunny with Mist and Fog 36 2.3 32 0.1 86 86 E 6 9 29.55 1001 6 9.65604 0 0
11:58 pm 23:58 Mostly Cloudy with Mist and Fog 36 2 32 0.1 87 87 ENE 6 9 29.54 1000 5 8.0467 0 0

Powered by AerisWeather